Regional Weather Roundup
Issued by NWS Bismarck, ND

Home | Current Version | Previous Version | Text Only | Print | Product List | Glossary On
Versions: 1 2 3 4 5 6 7 8 9 10 11 12 13 14 15 16 17 18 19 20 21 22 23 24 25 26 27 28 29 30 31 32 33 34 35 36 37 38 39 40 41 42 43 44 45 46 47 48 49 50
000
ASUS43 KBIS 251310
RWRBIS

NWR BROADCAST TEXT
NATIONAL WEATHER SERVICE BISMARCK ND
800 AM CDT MON JUL 25 2016

NOTE: "FAIR" INDICATES FEW OR NO CLOUDS BELOW 12,000 FEET WITH NO
SIGNIFICANT WEATHER AND/OR OBSTRUCTIONS TO VISIBILITY.


CITY           SKY/WX    TMP DP  RH WIND       PRES   REMARKS
WILLISTON      SUNNY     66  57  72 CALM      29.97R
MINOT          SUNNY     67  59  75 SE7       29.98S
MINOT AFB      SUNNY     63  59  87 S7        29.97F
BISMARCK       SUNNY     66  62  87 E5        30.00F
DICKINSON      SUNNY     63  53  70 S8        29.98F
GARRISON         N/A     65  62  90 E5        29.98F
HETTINGER ARPT SUNNY     66  52  60 S7        30.03S
JAMESTOWN      SUNNY     65  62  90 S3        30.04S
CARRINGTON     FAIR      66  63  88 S5        30.05S
HAZEN          FAIR      63  57  82 CALM      30.00S
LINTON         FAIR      64  63  94 SE9       30.05S
OAKES            N/A    N/A N/A N/A MISG        N/A
STANLEY        FAIR      61  61 100 CALM      30.02S
$$

CITY           SKY/WX    TMP DP  RH WIND       PRES   REMARKS
GRAND FORKS    MOSUNNY   67  61  81 NW3       30.00F
GRAND FORKS AF SUNNY     69  61  76 W3        30.01S
DEVILS LAKE    SUNNY     67  64  90 CALM      30.03S
FARGO          SUNNY     67  59  75 SW6       30.04R
CAVALIER       FAIR      66  59  77 W6        29.99F
GRAFTON        FAIR      66  61  82 SW5       30.02S
GWINNER        FAIR      66  63  88 SW7       30.08R
LANGDON        FAIR      63  61  94 SW3       30.03S
ROLLA          FAIR      63  59  88 CALM      30.04R
$$

CITY           SKY/WX    TMP DP  RH WIND       PRES   REMARKS
ABERDEEN       PTSUNNY   62  58  86 S5        30.07R
MOBRIDGE       MOSUNNY   71  59  65 S10       30.02S
BUFFALO          N/A     64  51  62 CALM      29.99R
RAPID CITY     SUNNY     68  56  65 S8        30.09R
GLASGOW        SUNNY     64  54  69 CALM      29.98R
SIDNEY         SUNNY     62  54  74 N5        29.97R
WOLF POINT     SUNNY     60  55  83 S3        29.98R
GLENDIVE       SUNNY     65  54  67 W5        29.99R
MILES CITY     SUNNY     66  48  52 CALM      29.99R
BAKER          SUNNY     64  51  62 CALM      30.02S
$$

CITY           SKY/WX    TMP DP  RH WIND       PRES   REMARKS
BILLINGS       MOSUNNY   62  42  47 SW9       30.05S
GREAT FALLS    CLEAR     55  43  63 SW7       30.09R
REGINA         MOSUNNY   61  57  88 SE7       29.99S
ESTEVAN        SUNNY     63  57  82 E7        29.98S
$$




USA.gov is the U.S. government's official web portal to all federal, state and local government web resources and services.